sat.trackr.live / text

‹ back to catalog

STARLINK-5227

NORAD 54181 · 2022-141AA

PAYLOAD ACTIVE UNKNOWN

§ Identity

Operator
Country
US
Launch date
2022-10-28
Launch site
AFWTR
Launch vehicle
Mass (kg)
RCS (m²)

Purposes: comms

External: N2YO · Heavens-Above · Gunter

§ Orbital elements

Epoch: 2026-09-20T10:31:04.741248Z

Period
93.85 min
Inclination
53.1595°
Eccentricity
0.0001580
Mean motion
15.34371057 rev/d
Perigee alt
461.7 km
Apogee alt
463.9 km
Semi-major
6,840.9 km
B*
-3.3827e-5
RAAN
194.0692°
Arg perigee
82.4105°
Mean anomaly
277.7077°
Rev number
21,547

§ Raw data

STARLINK-52271 54181U 22141AA  26263.43824932 -.00001518  00000+0 -33827-4 0  99962 54181  53.1595 194.0692 0001580  82.4105 277.7077 15.34371057215476

JSON: /api/v1/satellites/54181 · /tle

For live sub-satellite position, see the globe view (requires WebGL).

§ Visibility from observer

Set your observer location to see the next 7 days of passes ≥ 10°. The values pass through the URL so the page stays shareable.

No JS? Fill the form by hand. The geolocation button needs JavaScript.